Regional Weather Roundup
Issued by NWS Bismarck, ND

Home | Current Version | Previous Version | Text Only | Print | Product List | Glossary On
Versions: 1 2 3 4 5 6 7 8 9 10 11 12 13 14 15 16 17 18 19 20 21 22 23 24 25 26 27 28 29 30 31 32 33 34 35 36 37 38 39 40 41 42 43 44 45 46 47 48 49 50
000
ASUS43 KBIS 061020
RWRBIS

NWR BROADCAST TEXT
NATIONAL WEATHER SERVICE BISMARCK ND
400 AM CST FRI MAR 06 2015

NOTE: "FAIR" INDICATES FEW OR NO CLOUDS BELOW 12,000 FEET WITH NO
SIGNIFICANT WEATHER AND/OR OBSTRUCTIONS TO VISIBILITY.


CITY           SKY/WX    TMP DP  RH WIND       PRES   REMARKS
WILLISTON      CLEAR     18  14  84 CALM      30.06S
MINOT          FAIR      21  13  71 W14       30.02R WCI   8
MINOT AFB      FAIR      17  14  90 W14       30.01S WCI   3
BISMARCK       CLEAR     23  14  68 W5        30.06R WCI  17
DICKINSON      MOCLDY    22  13  68 W6        30.02S WCI  14
GARRISON         N/A     17  12  80 NW12      30.03R WCI   4
HETTINGER ARPT CLEAR     21  13  71 SW3       30.05F
JAMESTOWN      CLEAR     18  10  71 W9        29.98R WCI   7
BEACH          FAIR      27  16  63 W5        30.06R
CARRINGTON     FAIR      18  16  93 MISG      30.00S
CROSBY         FAIR      16  12  86 W9        30.05S WCI   4
HARVEY         FAIR      16  14  93 W10       30.01S WCI   3
HAZEN          FAIR      21  16  79 W5        30.07R WCI  15
LINTON         FAIR      18  14  86 W5        30.03S WCI  11
MANDAN         FAIR      21  16  79 NW8       30.05R WCI  12
OAKES            N/A     10   9  92 N7G28     30.02R WCI   0
RUGBY          FAIR      10   9  92 CALM      30.00R
TIOGA          FAIR      10  10 100 W5        30.06S WCI   2
WATFORD CITY   FAIR      16  14  93 S3        30.04S
$$

CITY           SKY/WX    TMP DP  RH WIND       PRES   REMARKS
GRAND FORKS    FAIR      12   7  80 W7        29.97R WCI   1
GRAND FORKS AF FAIR      17   9  70 NW10      29.96R WCI   5
DEVILS LAKE    CLEAR     10   5  79 NW8       29.98S WCI  -1
FARGO          CLEAR     14   7  73 SW7       29.98S WCI   4
CANDO          FAIR       9   5  85 NW9       29.98S WCI  -5
CAVALIER       FAIR      16   9  73 W9        29.97R WCI   4
GWINNER        SUNNY     18  10  73 SW14      30.00S WCI   4
ROLLA          FAIR      18  10  73 NW16      29.96R WCI   3
WALHALLA         N/A     18  10  73 W10       29.97R WCI   6
$$

CITY           SKY/WX    TMP DP  RH WIND       PRES   REMARKS
ABERDEEN       CLEAR     13   8  81 S8        30.02F WCI   2
MOBRIDGE       CLEAR     19  12  74 E3        30.01F
BUFFALO          N/A     27  14  58 W10       29.99F WCI  17
RAPID CITY     PTCLDY    30  15  53 W5        30.11S
GLASGOW        CLEAR     26  18  71 CALM      30.05F
SIDNEY         PTCLDY    25  16  68 E5        30.09S WCI  19
WOLF POINT     MOCLDY    26  20  77 W3        30.07F
GLENDIVE       CLEAR     25  18  74 NW9       30.06S WCI  15
MILES CITY     CLEAR     29  17  61 MISG      30.09S
BAKER          CLEAR     27  14  58 CALM      30.06S
$$

CITY           SKY/WX    TMP DP  RH WIND       PRES   REMARKS
BILLINGS       PTCLDY    35  14  42 SW17      30.15F
GREAT FALLS    CLEAR     33  17  51 SW13      30.13R
REGINA         MOCLDY     7   5  92 S7        30.00F WCI  -5
ESTEVAN        PTCLDY     9   7  92 W10       30.03S WCI  -6
$$



USA.gov is the U.S. government's official web portal to all federal, state and local government web resources and services.